Phuket, Thailand

12:22 PM +07 on March 28, 2017 (GMT +0700)
Phuket International

Weather History for VTSP - February, 2014

Change the Weather History Date:

Tuesday, February 18, 2014

  Actual Average Record
Temperature  
Mean Temperature 84 °F -  
Max Temperature 94 °F 92 °F 96 °F (2000)
Min Temperature 74 °F 76 °F 72 °F (2017)
Cooling Degree Days 19    
Growing Degree Days 34 (Base 50)    
Moisture  
Dew Point 70 °F    
Average Humidity 65    
Maximum Humidity 88    
Minimum Humidity 30    
Precipitation  
Precipitation 0.00 in 0.06 in - ()
Sea Level Pressure  
Sea Level Pressure 29.90 in    
Wind  
Wind Speed 6 mph ()    
Max Wind Speed 17 mph    
Max Gust Speed -    
Visibility 5.3 miles    
Events      
Averages and records for this station are not official NWS values.
T = Trace of Precipitation, MM = Missing Value Source: Averaged Metar Reports

Daily Weather History Graph

Daily Weather History Graph

Search for Another Location

Airport or City:

Trip Planner

Search our weather history database for the weather conditions in past years. The results will help you decide how hot, cold, wet, or windy it might be!

Date:

Astronomy

Feb. 18, 2014 Rise Set
Actual Time 6:44 AM +07 6:37 PM +07
Civil Twilight 6:22 AM +07 6:58 PM +07
Nautical Twilight 5:58 AM +07 7:23 PM +07
Astronomical Twilight 5:33 AM +07 7:47 PM +07
Moon 9:11 PM +07 (2/18) 8:42 AM +07 (2/18)
Length of Visible Light 12h 35m
Length of Day
11h 53m
Waning Gibbous, 90% of the Moon is Illuminated
Feb 18
Waning Gibbous
Feb 23
Last Quarter
Mar 1
New
Mar 8
First Quarter
Mar 17
Full

Hourly Weather History & Observations

Time (+07) Temp. Heat Index Dew Point Humidity Pressure Visibility Wind Dir Wind Speed Gust Speed Precip Events Conditions
12:00 AM 78.8 °F - 69.8 °F 74% 29.95 in 5.0 mi ENE 5.8 mph - N/A   Scattered Clouds
12:30 AM 78.8 °F - 69.8 °F 74% 29.95 in 5.0 mi NE 5.8 mph - N/A   Scattered Clouds
1:00 AM 80 °F - 72 °F 69% 29.90 in 6 mi Calm Calm - -   Mist
1:00 AM 78.8 °F - 69.8 °F 74% 29.92 in 5.0 mi ENE 6.9 mph - N/A   Scattered Clouds
1:30 AM 78.8 °F - 68.0 °F 69% 29.92 in 5.0 mi NE 5.8 mph - N/A   Scattered Clouds
2:00 AM 78.8 °F - 69.8 °F 74% 29.92 in 5.0 mi ENE 5.8 mph - N/A   Scattered Clouds
2:30 AM 78.8 °F - 69.8 °F 74% 29.89 in 5.0 mi NE 5.8 mph - N/A   Scattered Clouds
3:00 AM 78.8 °F - 69.8 °F 74% 29.89 in 5.0 mi ENE 8.1 mph - N/A   Scattered Clouds
4:00 AM 77 °F - 72 °F 80% 29.86 in 6 mi Calm Calm - -   Mist
4:00 AM 77.0 °F - 69.8 °F 78% 29.89 in 5.0 mi NE 5.8 mph - N/A   Scattered Clouds
5:30 AM 73.4 °F - 69.8 °F 88% 29.92 in 5.0 mi Calm Calm - N/A   Scattered Clouds
6:00 AM 73.4 °F - 69.8 °F 88% 29.92 in 5.0 mi East 4.6 mph - N/A   Scattered Clouds
6:30 AM 77.0 °F - 69.8 °F 78% 29.92 in 5.0 mi East 8.1 mph - N/A   Scattered Clouds
7:00 AM 76 °F - 72 °F 82% 29.89 in 6 mi Calm Calm - -   Mist
7:00 AM 77.0 °F - 69.8 °F 78% 29.92 in 5.0 mi ESE 3.5 mph - N/A   Mostly Cloudy
7:30 AM 77.0 °F - 69.8 °F 78% 29.95 in 5.0 mi East 5.8 mph - N/A   Mostly Cloudy
8:00 AM 78.8 °F - 69.8 °F 74% 29.95 in 5.0 mi NE 10.4 mph - N/A   Mostly Cloudy
8:30 AM 80.6 °F 83.9 °F 69.8 °F 70% 29.95 in 5.6 mi ENE 11.5 mph - N/A   Mostly Cloudy
9:00 AM 80.6 °F 83.9 °F 69.8 °F 70% 29.98 in 5.6 mi East 10.4 mph - N/A   Mostly Cloudy
9:30 AM 82.4 °F 86.3 °F 69.8 °F 66% 29.98 in 5.6 mi ENE 11.5 mph - N/A   Mostly Cloudy
10:00 AM 84 °F - 71 °F 56% 29.92 in 6 mi East 11.5 mph - -   Scattered Clouds
10:00 AM 82.4 °F 85.4 °F 68.0 °F 62% 29.98 in 5.6 mi East 11.5 mph - N/A   Mostly Cloudy
10:30 AM 84.2 °F 87.3 °F 68.0 °F 58% 29.98 in 5.6 mi East 11.5 mph - N/A   Mostly Cloudy
11:00 AM 84.2 °F 87.3 °F 68.0 °F 58% 29.98 in 5.6 mi East 11.5 mph - N/A   Mostly Cloudy
11:30 AM 86.0 °F 89.4 °F 68.0 °F 55% 29.95 in 5.6 mi East 9.2 mph - N/A   Mostly Cloudy
12:00 PM 87.8 °F 91.4 °F 68.0 °F 52% 29.92 in 5.6 mi ENE 10.4 mph - N/A   Mostly Cloudy
12:30 PM 87.8 °F 91.4 °F 68.0 °F 52% 29.92 in 5.6 mi ENE 8.1 mph - N/A   Mostly Cloudy
1:00 PM 90 °F - 69 °F 40% 29.88 in 6 mi East 13.8 mph - -   Scattered Clouds
1:00 PM 87.8 °F 90.4 °F 66.2 °F 49% 29.92 in 5.6 mi ENE 9.2 mph - N/A   Mostly Cloudy
1:30 PM 89.6 °F 91.1 °F 64.4 °F 43% 29.89 in 5.6 mi Variable 8.1 mph - N/A   Mostly Cloudy
2:00 PM 89.6 °F 91.1 °F 64.4 °F 43% 29.86 in 5.6 mi ENE 9.2 mph - N/A   Mostly Cloudy
2:30 PM 89.6 °F 91.1 °F 64.4 °F 43% 29.86 in 5.6 mi ENE 9.2 mph - N/A   Mostly Cloudy
3:00 PM 91.4 °F 93.2 °F 64.4 °F 41% 29.83 in 5.6 mi ENE 8.1 mph - N/A   Mostly Cloudy
3:30 PM 93.2 °F 91.9 °F 57.2 °F 30% 29.83 in 5.6 mi East 5.8 mph - N/A   Mostly Cloudy
4:00 PM 93 °F - 67 °F 33% 29.80 in 6 mi WNW 6.9 mph - -   Scattered Clouds
4:00 PM 91.4 °F 93.2 °F 64.4 °F 41% 29.83 in 5.6 mi Variable 3.5 mph - N/A   Mostly Cloudy
4:30 PM 87.8 °F 93.8 °F 71.6 °F 58% 29.83 in 5.6 mi NW 15.0 mph - N/A   Mostly Cloudy
5:00 PM 86.0 °F 91.8 °F 71.6 °F 62% 29.83 in 5.6 mi WNW 12.7 mph - N/A   Mostly Cloudy
5:30 PM 84.2 °F 89.6 °F 71.6 °F 66% 29.83 in 5.6 mi NW 12.7 mph - N/A   Mostly Cloudy
6:00 PM 84.2 °F 88.4 °F 69.8 °F 62% 29.86 in 5.0 mi WNW 12.7 mph - N/A   Mostly Cloudy
6:30 PM 82.4 °F 87.2 °F 71.6 °F 70% 29.86 in 5.0 mi WNW 11.5 mph - N/A   Mostly Cloudy
7:00 PM 84 °F - 73 °F 62% 29.82 in 6 mi North 17.3 mph - -   Mist
7:00 PM 82.4 °F 87.2 °F 71.6 °F 70% 29.86 in 5.0 mi WNW 10.4 mph - N/A   Mostly Cloudy
7:30 PM 82.4 °F 87.2 °F 71.6 °F 70% 29.86 in 5.0 mi WNW 9.2 mph - N/A   Mostly Cloudy
8:00 PM 82.4 °F 87.2 °F 71.6 °F 70% 29.89 in 5.0 mi WNW 6.9 mph - N/A   Mostly Cloudy
8:30 PM 82.4 °F 88.2 °F 73.4 °F 74% 29.89 in 5.0 mi WNW 9.2 mph - N/A   Scattered Clouds
9:00 PM 82.4 °F 88.2 °F 73.4 °F 74% 29.92 in 5.0 mi WNW 9.2 mph - N/A   Scattered Clouds
9:30 PM 82.4 °F 88.2 °F 73.4 °F 74% 29.92 in 5.0 mi West 6.9 mph - N/A   Scattered Clouds
10:00 PM 83 °F - 75 °F 70% 29.88 in 5 mi Calm Calm - -   Mist
10:00 PM 80.6 °F 85.4 °F 73.4 °F 79% 29.92 in 5.0 mi West 3.5 mph - N/A   Scattered Clouds
10:30 PM 80.6 °F 84.6 °F 71.6 °F 74% 29.92 in 5.0 mi West 3.5 mph - N/A   Scattered Clouds
11:00 PM 80.6 °F 84.6 °F 71.6 °F 74% 29.92 in 5.0 mi Variable 2.3 mph - N/A   Scattered Clouds
11:30 PM 78.8 °F - 71.6 °F 78% 29.92 in 5.0 mi Calm Calm - N/A   Scattered Clouds